User: anonymous   Login
Location: Handeloh
(53.2500°N, 9.8330°E)
Time: 14:34:55
(UTC+01:00)
Language:

Vanguard 2 Rocket - Orbit

View from above orbital plane
View from above orbital plane
View from above satellite
View from above satellite

Ground track
Ground track

The orbit data is extracted from the following two-line orbital elements,

1    12U 59001B   19317.59809053  .00000080  00000-0  49384-4 0  9998
2    12  32.9022  29.6678 1666181  15.8339 348.8486 11.44314441497715
Epoch (UTC): 13 November 2019 14:21:15
Eccentricity: 0.1666181
inclination: 32.9022°
perigee height: 554 km
apogee height: 3326 km
right ascension of ascending node: 29.6678°
argument of perigee: 15.8339°
revolutions per day: 11.44314441
mean anomaly at epoch: 348.8486°
orbit number at epoch: 49771

The dashed part of the orbit path shows where the satellite is in the earth's shadow,  

DLR